Regional Weather Roundup
Issued by NWS Grand Forks, ND

Home | Current Version | Previous Version | Text Only | Print | Product List | Glossary On
Versions: 1 2 3 4 5 6 7 8 9 10 11 12 13 14 15 16 17 18 19 20 21 22 23 24 25 26 27 28 29 30 31 32 33 34 35 36 37 38 39 40 41 42 43 44 45 46 47 48 49 50
911
ASUS43 KFGF 301910
RWRFGF
PRAIRIE TO PINES  WEATHER ROUNDUP
NATIONAL WEATHER SERVICE EASTERN NORTH DAKOTA/GRAND FORKS ND
200 PM CDT SAT JUL 30 2016

 **SATELLITE DATA USED TO AUGMENT SKY COVER AT AUTOMATED STATIONS**
 *****  WEATHER ACROSS EASTERN NORTH DAKOTA  *****

CITY           SKY/WX    TMP DP  RH WIND       PRES   REMARKS
GRAND FORKS    PTSUNNY   81  62  52 S16       29.92F
GRAND FRKS AFB PTSUNNY   79  63  56 S18       29.93S
DEVILS LAKE    CLOUDY    74  63  68 S14       29.91F
FARGO          MOSUNNY   80  60  50 S13G20    29.95F
WAHPETON ARPT  CLEAR     79  55  44 SE12      29.98F
$$

 ***** WEATHER ACROSS CENTRAL AND WESTERN NORTH DAKOTA  *****

CITY           SKY/WX    TMP DP  RH WIND       PRES   REMARKS
BISMARCK       SUNNY     81  67  62 S13       29.87F
MINOT          MOSUNNY   85  60  42 E9        29.85F
JAMESTOWN      CLOUDY    77  62  59 S14G21    29.92F
MINOT AFB      SUNNY     82  60  47 VRB7      29.84F
GARRISON         N/A     79  66  64 SW5       29.86F
WILLISTON      SUNNY     86  51  29 S8        29.84F
DICKINSON      SUNNY     82  53  36 W5        29.86F
HETTINGER      PTSUNNY   91  53  27 SW7       29.88F
$$

 *****  OTHER AIRPORT OBSERVATIONS IN OUR AREA  *****

CITY           SKY/WX    TMP DP  RH WIND       PRES   REMARKS
WALHALLA       NOT AVBL
GRAFTON AIRPOR FAIR      81  66  61 S14       29.91F
VALLEY CITY AR MOCLDY    75  63  64 S15       29.96F
CANDO          NOT AVBL
CAVALIER APRT  FAIR      79  66  65 S10       29.89F
GWINNER        FAIR      81  61  50 S12       29.96F
SHEYENNE NWR     N/A     82  59  45 S14       29.95S
ROLLA            N/A     77  63  61 S13       29.90F
 ***** THE ABOVE OBSERVATIONS ARE NON NWS ARE NOT QUALITY
       CONTROLLED AND MAY MIS-REPORT RAIN FOR SNOW...
$$

  *****  WEATHER ACROSS NORTHERN MINNESOTA  *****

CITY           SKY/WX    TMP DP  RH WIND       PRES   REMARKS
FLAG ISLAND    MOSUNNY   75  64  69 S13       29.95S
WARROAD        MOSUNNY   77  64  65 S10       29.97S
ROSEAU         CLOUDY    75  66  73 S12       29.95F
HALLOCK        MOSUNNY   81  66  61 S15G21    29.90F
THF RVR FALLS  MOSUNNY   77  63  61 S15       29.98F
BAUDETTE       CLOUDY    74  65  73 S12G23    29.99S
WASKISH        CLOUDY    72  63  73 S6        30.01F
CROOKSTON      SUNNY     81  61  50 S13G20    29.95F
STEPHEN NDAWN    N/A     79  64  61 S14         N/A
GREENBUSH NDAW   N/A     81  63  54 S13         N/A
$$
  *****  WEATHER ACROSS CENTRAL AND WEST MINNESOTA  *****

CITY           SKY/WX    TMP DP  RH WIND       PRES   REMARKS
FOSSTON        PTSUNNY   73  64  73 SE8       30.01S
BEMIDJI        CLOUDY    68  60  76 W3        30.03F
PARK RAPIDS    CLOUDY    76  55  48 S8        30.02F
ELBOW LAKE     FAIR      76  60  57 SE10      30.01F
WADENA         SUNNY     75  55  50 SE8       30.02F
DETROIT LAKES  MOSUNNY   77  59  53 S13       30.02F
MOORHEAD       SUNNY     79  59  50 S13       29.97F
FERGUS FALLS   SUNNY     75  59  57 SE10      30.01S
MORRIS MN      SUNNY     81  57  44 SE10      30.00F
STAPLES        MOSUNNY   77  54  44 S6G17     30.03F
$$
  *****  WEATHER ELSEWHERE ACROSS MINNESOTA  *****

CITY           SKY/WX    TMP DP  RH WIND       PRES   REMARKS
DULUTH         MOSUNNY   75  61  61 VRB7      30.05F
INTRNTL FALLS  PTSUNNY   77  59  53 MISG      30.00F
ELY            SUNNY     75  52  43 SW8       30.05S
CLOQUET        PTSUNNY   75  57  53 S6        30.05F
WHEATON        NOT AVBL
BRAINERD       MOSUNNY   76  56  49 S6        30.03F
HIBBING        CLOUDY    73  51  46 CALM      30.04F
ALEXANDRIA     SUNNY     77  54  44 SE7       30.03F
SAINT CLOUD    SUNNY     78  62  57 VRB5      30.01F
MINNEAPOLIS    MOSUNNY   79  62  56 SE12      30.01F
$$

  *****  WEATHER ACROSS SOUTH DAKOTA  *****

CITY           SKY/WX    TMP DP  RH WIND       PRES   REMARKS
SIOUX FALLS    MOSUNNY   79  57  46 S8        29.99F
BROOKINGS      MOSUNNY   75  60  59 SE12      29.99F
WATERTOWN      SUNNY     80  58  46 S10G18    29.98F
HURON          SUNNY     82  57  42 SE14G21   29.93F
SISSETON         N/A     80  59  48 S9G18     29.96F
ABERDEEN       SUNNY     82  59  45 S14       29.94F
MITCHELL       MOSUNNY   83  61  47 S9G23     29.95F
PIERRE         SUNNY     87  61  41 S20G26    29.87F
MOBRIDGE       SUNNY     89  60  37 SE21G28   29.85F
RAPID CITY     SUNNY     89  58  34 S16       29.89F
$$

  *****  SOME WEATHER IN NEARBY STATES *****

CITY           SKY/WX    TMP DP  RH WIND       PRES   REMARKS
GLASGOW MT     SUNNY     86  55  34 SE16      29.78F
GREAT FALLS MT MOSUNNY   88  40  18 S6G17     29.79F
CHEYENNE WY    SUNNY     82  55  39 SE6       30.10F
SCOTTSBLUFF NE SUNNY     84  66  54 E13       29.97F
OMAHA NE       PTSUNNY   77  64  64 SE8       30.00F
DES MOINES IA  PTSUNNY   78  64  61 NE3       30.00F
DAVENPORT IA   CLOUDY    76  67  73 NE8       30.00F
CHICAGO IL     PTSUNNY   75  65  70 NE12      29.98F
EAU CLAIRE WI  PTSUNNY   78  60  53 SE7       30.02F
LA CROSSE WI   CLOUDY    78  61  55 SE5       30.02F
$$

  *****  SOME NATIONAL WEATHER *****

CITY           SKY/WX    TMP DP  RH WIND       PRES   REMARKS
LA GUARDIA NY  PTSUNNY   83  71  67 VRB7G17   29.97F
RALEIGH NC     PTSUNNY   93  73  52 W12G18    29.93F HX 102
ATLANTA GA     PTSUNNY   81  72  74 SW5       30.05S
NEW ORLEANS LA MOSUNNY   96  73  47 VRB6      30.02F HX 105
OKLAHOMA CITY  CLOUDY    88  73  61 SE7       29.98S HX  95
ALBUQUERQUE NM MOSUNNY   84  51  31 SW6       30.15F
SALT LAKE CITY PTSUNNY   97  42  15 S13       29.95S HX  93
LOS ANGELES CA PTSUNNY   77  66  68 W9        29.89S
BOISE ID       SUNNY     92  44  19 NW9       29.85S
SEATTLE WA     PTSUNNY   65  52  62 SW14      30.00S
$$

*** WEATHER ACROSS MANITOBA...SASKATCHEWAN AND ONTARIO ***
                ***ONTARIO***

CITY           SKY/WX    TMP DP  RH WIND       PRES   REMARKS
GERALDTON      MOSUNNY   77  52  41 S9        30.06F
THUNDER BAY    PTSUNNY   75  50  41 SE8       30.07S
SIOUX LOOKOUT  PTSUNNY   79  55  44 S10       30.00F
TORONTO        MOSUNNY   79  55  44 E15       30.03F
BIG TROUT LK   PTSUNNY   79  63  57 S7        29.91F
PICKLE LAKE    PTSUNNY   81  50  34 S9G18     29.97F
DRYDEN         MOSUNNY   79  55  44 S12G23    30.00F
KENORA         PTSUNNY   77  59  53 S10       29.98S
$$
                *** MANITOBA***

CITY           SKY/WX    TMP DP  RH WIND       PRES   REMARKS
BRANDON        MOSUNNY   81  59  47 SW9       29.85F
DAUPHIN        MOSUNNY   81  61  50 S6        29.81F
ISLAND LAKE    MOSUNNY   79  63  57 S10       29.85F THUNDER
PILOT MOUND      N/A     75  64  69 S8          N/A
THE PAS        MOSUNNY   81  61  50 SE7       29.76F
THOMPSON       PTSUNNY   73  64  73 VRB3      29.78F
WINNIPEG       MOSUNNY   81  64  57 S10G20    29.89F
LYNN LAKE      CLOUDY    68  59  73 MISG      29.80S
CHURCHILL      PTSUNNY   57  48  72 SE12      29.93F
GILLAM         CLOUDY    64  59  82 SE5       29.82F
$$
                ***SASKATCHEWAN***

CITY           SKY/WX    TMP DP  RH WIND       PRES   REMARKS
ESTEVAN        MOSUNNY   81  59  47 VRB9      29.84F
KINDERSLEY     NOT AVBL
LLOYDMINSTER   LGT RAIN  63  61  94 E3        29.78S FOG
PRINCE ALBERT  PTSUNNY   82  61  47 S12       29.74F
REGINA         PTSUNNY   81  61  50 SW9       29.81F
YORKTON        MOSUNNY   79  57  47 SW6       29.83S
N. BATTLEFORD  NOT AVBL
LA RONGE       PTSUNNY   79  57  47 SE6       29.73F
SASKATOON      PTSUNNY   81  54  39 SE13      29.77S
SWIFT CURRENT  RAIN      63  59  88 N6        29.81R
$$
NOTE: THESE ARE AUTOMATED STATIONS WITH LIMITED QUALITY CONTROL
      "FAIR" INDICATES FEW OR NO CLOUDS BELOW 12,000 FEET WITH NO
      SIGNIFICANT WEATHER AND/OR OBSTRUCTIONS TO VISIBILITY.
      SKY/WX - SKY CONDITION AND SIGNIFICANT WEATHER.
      TMP - AIR TEMPERATURE.    DP   - DEWPOINT TEMPERATURE.
      RH  - RELATIVE HUMIDITY.  PRES - PRESSURE.
      HX  - HEAT INDEX.         WCI  - WIND CHILL INDEX.
$




USA.gov is the U.S. government's official web portal to all federal, state and local government web resources and services.